Regional Weather Roundup
Issued by NWS Wilmington, NC

Home | Current Version | Previous Version | Text Only | Print | Product List | Glossary On
Versions: 1 2 3 4 5 6 7 8 9 10 11 12 13 14 15 16 17 18 19 20 21 22 23 24 25 26 27
000
ASUS42 KILM 170112
RWRILM
RWRILM
REGIONAL HOURLY WEATHER ROUNDUP
NATIONAL WEATHER SERVICE WILMINGTON NC
800 PM EST MON JAN 16 2017

NOTE: "FAIR" INDICATES FEW OR NO CLOUDS BELOW 12,000 FEET WITH NO
SIGNIFICANT WEATHER AND/OR OBSTRUCTIONS TO VISIBILITY.

...............WFO WILMINGTON COUNTY WARNING AREA...............

......COASTAL NC AND SC COUNTIES......

CITY           SKY/WX    TMP DP  RH WIND       PRES   REMARKS
WILMINGTON     CLOUDY    54  47  77 E6        30.35S
N MYRTLE BEACH CLOUDY    54  51  90 NE5       30.34S
MYRTLE BEACH   MOCLDY    55  48  76 N8        30.36F

......INLAND NC AND SC COUNTIES.......

CITY           SKY/WX    TMP DP  RH WIND       PRES   REMARKS
LUMBERTON      CLOUDY    52  47  83 SE3       30.35S
ELIZABETHTOWN  CLOUDY    52  47  81 CALM      30.35F
WHITEVILLE     CLOUDY    53  47  78 NE3       30.34S
FLORENCE       CLOUDY    54  52  93 CALM      30.35S
DARLINGTON     CLOUDY    52  49  89 NE3       30.35F FOG
KINGSTREE      CLOUDY    52  52 100 NE3       30.35S FOG
HARTSVILLE     CLOUDY    50  46  87 CALM      30.34F
BENNETTSVILLE  CLOUDY    54  50  87 CALM      30.35S
CONWAY         MOCLDY    52  50  93 CALM      30.35R
GEORGETOWN     CLOUDY    54  50  87 CALM      30.36R
MARION         CLOUDY    52  48  87 CALM      30.35S

....................REST OF NORTH CAROLINA......................

.........EASTERN NC.........

CITY           SKY/WX    TMP DP  RH WIND       PRES   REMARKS
CAPE HATTERAS  PTCLDY    47  43  86 N8        30.35F
JACKSONVILLE   CLOUDY    52  45  77 CALM      30.37S
MOREHEAD CITY  MOCLDY    47  43  86 CALM      30.37S
KENANSVILLE    CLOUDY    52  45  76 CALM      30.36F
NEW BERN       CLOUDY    50  44  80 CALM      30.38F
ELIZABETH CITY MOCLDY    43  39  86 CALM      30.38S

.........CENTRAL NC.........

CITY           SKY/WX    TMP DP  RH WIND       PRES   REMARKS
RALEIGH DURHAM CLOUDY    49  36  61 SE3       30.36F
ROCKY MOUNT    CLOUDY    48  43  82 CALM      30.37F
ROANOKE RAPIDS NOT AVBL
FAYETTEVILLE   CLOUDY    50  45  83 CALM      30.35F
HOFFMAN        CLOUDY    46  45  93 CALM      30.34F

.........WESTERN NC.........

CITY           SKY/WX    TMP DP  RH WIND       PRES   REMARKS
CHARLOTTE      CLOUDY    51  46  83 S8        30.34S
GREENSBORO     CLOUDY    48  44  86 S7        30.33R
HICKORY        NOT AVBL
BOONE          NOT AVBL
ASHEVILLE      NOT AVBL

.....................REST OF SOUTH CAROLINA.....................

.........EASTERN SC.........

CITY           SKY/WX    TMP DP  RH WIND       PRES   REMARKS
CHARLESTON     MOCLDY    59  55  87 NE7       30.31S
BEAUFORT MCAS  CLOUDY    62  59  90 E6        30.30S
HILTON HEAD    MOCLDY    57  55  94 E7        30.31S

.........CENTRAL SC.........

CITY           SKY/WX    TMP DP  RH WIND       PRES   REMARKS
COLUMBIA       CLOUDY    55  52  89 E7        30.32S
ORANGEBURG     CLOUDY    56  55  97 E5        30.32S FOG
SUMTER SHAW    FOG       52  51  96 E5        30.32R VSB 3/4

.........WESTERN SC.........

CITY           SKY/WX    TMP DP  RH WIND       PRES   REMARKS
GREENVILLE     NOT AVBL
ROCK HILL      CLOUDY    51  48  89 CALM      30.34S FOG
ANDERSON       CLOUDY    54  51  90 E9        30.31R
CLEMSON        NOT AVBL
GREENWOOD      FOG       54  53  97 SE5       30.32S VSB 1


...................COASTAL AND OFFSHORE REPORTS..................

................LOCAL PIERS AND NC RESERVE................


STATION/POSITION TIME  SKY/WX   TEMP    WIND        PRES    VSBY
                                AIR SEA DIR/SP/G
                 (UTC)          (F)     (DEG/KT/KT) (MB)    (MI)
JOHNY MRCER PIER 0042            53 55   40/  7/  8 1026.7F
NC RESRV MASNBRO 2345            53      70/  4     1027.0
OCEAN CREST PIER NOT AVBL
SPRINGMAID  PIER NOT AVBL


................COASTAL AND OFFSHORE BUOYS................


STATION/POSITION TIME  SKY/WX   TEMP    WIND        PRES    VSBY
                                AIR SEA DIR/SP/G
                 (UTC)          (F)     (DEG/KT/KT) (MB)    (MI)
DIMNDSHOAL 41025 0050            55 73   20/ 12/ 14 1027.2F
WVE H/P(F/S)=  3/ 7 SWL H/P/D(F/S/D)=  3/ 80/ 7

CAPE LOOKOUT     0000            49     360/  7/  9 1028.0F
ONSLOW BAY 41036 NOT AVBL
ONSLOW BAY 41064 0008            55 62   40/ 10/ 14 1028.0F
ONSLOW BAY 41159 0043               62                N/A
WVE H/P(F/S)=  3/ 8 SWL H/P/D(F/S/D)=  2/120/11

MASNBO INL 41110 0059               53                N/A
WVE H/P(F/S)=  3/11 SWL H/P/D(F/S/D)=  2/130/11

WILM HARBR 41108 0056               55                N/A
WVE H/P(F/S)=  3/ 6

27SE WRITB 41037 0008            60 68   70/ 14/ 17 1027.0F
FRYING PAN 41013 0050            65 70   40/ 14/ 17 1026.5F
WVE H/P(F/S)=  4/ 9 SWL H/P/D(F/S/D)=  2/130/ 9

SUNST NRSH 41024 0008            55 54   70/  6/  6 1027.4F
CAPRS NRSH 41029 0008            54 54   60/ 12/ 16 1026.5F
EDISTO     41004 2350            65 71   10/ 14/ 16 1026.1
WVE H/P(F/S)=  4/ 6 SWL H/P/D(F/S/D)=  3/110/ 9



..........OFFSHORE BUOYS BEYOND 100 NM OFFSHORE...........
.....IN A TRIANGLE---HAT TO BERMUDA TO BAHAMAS TO HAT.....


STATION/POSITION TIME  SKY/WX   TEMP    WIND        PRES    VSBY
                                AIR SEA DIR/SP/G
                 (UTC)          (F)     (DEG/KT/KT) (MB)    (MI)
150E HAT   41001 NOT AVBL
W BERMUDA  41048 0050            66 70   40/  8/ 10 1027.7S
WVE H/P(F/S)=  4/ 7 SWL H/P/D(F/S/D)=  3/340/ 7

ATLANTIC S 41049 2350            71 74   50/ 17/ 21 1023.5
WVE H/P(F/S)=  5/ 9 SWL H/P/D(F/S/D)=  3/ 40/ 9

E BAHAMAS  41046 0050            75 78   50/ 17/ 23 1023.0R
WVE H/P(F/S)=  7/ 8 SWL H/P/D(F/S/D)=  3/ 9

NE BAHAMAS 41047 0050            73 74   60/ 16/ 17 1025.7R
WVE H/P(F/S)=  5/ 8 SWL H/P/D(F/S/D)=  3/ 70/ 8

120E CANVRL41010 NOT AVBL

END




USA.gov is the U.S. government's official web portal to all federal, state and local government web resources and services.